"Pseudo-MPEC" for C15GVQ5

Created 2025 Oct 4 10:35:04 UT using Find_Orb

Click here for an explanation of pseudo-MPECs

 
 Astrometry: 
     C15GVQ5* C2025 09 30.38968504 59 34.123+21 38 04.99   ~9UA5 21.80GVNEOCPV00
     C15GVQ5  C2025 09 30.39531304 59 36.661+21 38 03.52   ~9UA5 21.59GVNEOCPV00
     C15GVQ5  C2025 09 30.40089504 59 39.185+21 38 01.68   ~9UA5 21.78GVNEOCPV00
     C15GVQ5  C2025 09 30.40647404 59 41.680+21 38 00.20   ~9UA5       VNEOCPV00
     C15GVQ5 KC2025 09 30.43996504 59 56.692+21 37 49.76   ~9UB5 21.76GVNEOCPV06
     C15GVQ5 KC2025 09 30.44158304 59 57.412+21 37 49.51   ~9UB5 21.93GVNEOCPV06
     C15GVQ5 KC2025 09 30.44320304 59 58.139+21 37 48.79   ~9UB5 22.08GVNEOCPV06
     C15GVQ5 KC2025 09 30.44482304 59 58.866+21 37 48.14   ~9UB5 21.63GVNEOCPV06
     C15GVQ5 KC2025 10 01.39675505 07 23.797+21 31 51.53   ~A1AK 21.48GVNEOCPV06
     C15GVQ5 KC2025 10 01.39933905 07 25.007+21 31 50.52   ~A1AK 21.17GVNEOCPV06
     C15GVQ5 KC2025 10 01.40192405 07 26.231+21 31 49.58   ~A1AK 21.83GVNEOCPV06
     C15GVQ5 KC2025 10 01.40450705 07 27.437+21 31 48.65   ~A1AK 21.96GVNEOCPV06
     C15GVQ5 KC2025 10 02.45314705 15 58.230+21 23 18.42   ~A2BK       VNEOCPV06
     C15GVQ5 KC2025 10 02.45448705 15 58.892+21 23 17.66   ~A2BK 22.15GVNEOCPV06
     C15GVQ5 KC2025 10 02.45582905 15 59.558+21 23 16.91   ~A2BK 21.65GVNEOCPV06

Station data:
(V00) Kitt Peak-Bok  (N31.963125 W111.600190)  US/Arizona. Measurers T.
   Beuden, V. F. Carvajal, D. Fay, J. B. Fazekas, D. C. Fuls, A. R. Gibbs, A.
   D. Grauer, H. Gröller, J. K. Hogan, R. A. Kowalski, S. M. Larson, G. J.
   Leonard, D. Rankin, R. L. Seaman, F. C. Shelly, K. W. Wierzchoś. 2.25-m
   reflector + 4x4K mosaic CCD.
(V06) Catalina Sky Survey-Kuiper  (N32.416871 W110.732550)  US/Arizona.
   Measurers T. Beuden, V. F. Carvajal, D. Fay, J. B. Fazekas, D. C. Fuls, A.
   R. Gibbs, A. D. Grauer, H. Gröller, J. K. Hogan, R. A. Kowalski, S. M.
   Larson, G. J. Leonard, D. Rankin, R. L. Seaman, F. C. Shelly, K. W.
   Wierzchoś. 1.55-m reflector + CCD.

Orbital elements:  C15GVQ5
   Perihelion 2025 Dec 2.436327 +/- 1.7 TT = 10:28:18.6 (JD 2461011.936327)
Epoch 2025 Oct  2.0 TT = JDT 2460950.5   Earth MOID: 0.0221   Ve: 0.0817
M 340.026068150 +/- 4.8             Ma: 0.0531                   AutoNEOCP
n   0.325115983 +/- 0.0693          Peri.  273.735210 +/- 2.0
a   2.094645349 +/- 0.298           Node   200.993479 +/- 0.7
e   0.66014437 +/- 0.0465           Incl.    6.016877 +/- 0.27
P   3.03156                H 21.91  G  0.15   U 10.9
q 0.711877006 +/- 0.00404    Q 3.477413692 +/- 0.592      (J2000 ecliptic)
From 15 observations 2025 Sept. 30-Oct. 2; mean residual 0".10
Residuals in arcseconds: 
250930 V00  .17-  .06-    250930 V06  .04-  .16+    251001 V06  .10+  .08+    
250930 V00  .03-  .12+    250930 V06  .05-  .06-    251001 V06  .02+  .19+    
250930 V00  .20+  .09-    250930 V06  .05-  .20-    251002 V06  .11-  .01+    
250930 V00  .06+  .08+    251001 V06  .04-  .03-    251002 V06  .02-  .03-    
250930 V06  .04+  .09-    251001 V06  .07-  .01-    251002 V06  .11+  .06-    

Ephemerides (geocentric):
Date (UTC) HH   RA             Dec           delta  r     elong  mag " sig PA
---- --------  ------------   ------------  ------ ------ -----  --- --------
2025 10 04 11  05 33 19.852   +21 00 32.17  .33636 1.1464 107.3 21.9 1.99  95
2025 10 04 12  05 33 42.421   +20 59 57.62  .33601 1.1459 107.3 21.9 2.08  95
2025 10 04 13  05 34 05.029   +20 59 22.81  .33565 1.1455 107.2 21.9 2.17  95
2025 10 04 14  05 34 27.674   +20 58 47.73  .33530 1.1451 107.2 21.9 2.26  95
2025 10 04 15  05 34 50.356   +20 58 12.39  .33495 1.1446 107.2 21.9 2.35  95
2025 10 04 16  05 35 13.076   +20 57 36.78  .33459 1.1442 107.1 21.9 2.44  95
2025 10 04 17  05 35 35.834   +20 57 00.91  .33424 1.1438 107.1 21.9 2.54  96
2025 10 04 18  05 35 58.630   +20 56 24.77  .33389 1.1433 107.0 21.9 2.63  96
2025 10 04 19  05 36 21.464   +20 55 48.36  .33354 1.1429 107.0 21.9 2.73  96
2025 10 04 20  05 36 44.335   +20 55 11.68  .33319 1.1425 106.9 21.9 2.83  96
2025 10 04 21  05 37 07.244   +20 54 34.73  .33285 1.1420 106.9 21.9 2.94  96
2025 10 04 22  05 37 30.190   +20 53 57.51  .33250 1.1416 106.8 21.9 3.04  96
2025 10 04 23  05 37 53.175   +20 53 20.02  .33215 1.1412 106.8 21.9 3.15  96
2025 10 05 00  05 38 16.197   +20 52 42.25  .33181 1.1407 106.7 21.9 3.26  97
2025 10 05 01  05 38 39.257   +20 52 04.22  .33146 1.1403 106.7 21.9 3.37  97
2025 10 05 02  05 39 02.354   +20 51 25.90  .33112 1.1399 106.6 21.9 3.49  97
2025 10 05 03  05 39 25.490   +20 50 47.31  .33077 1.1394 106.6 21.9 3.60  97
2025 10 05 04  05 39 48.663   +20 50 08.44  .33043 1.1390 106.5 21.9 3.72  97
2025 10 05 05  05 40 11.874   +20 49 29.30  .33009 1.1386 106.5 21.9 3.84  97
2025 10 05 06  05 40 35.123   +20 48 49.87  .32975 1.1381 106.4 21.9 3.97  97
2025 10 05 07  05 40 58.409   +20 48 10.17  .32941 1.1377 106.4 21.9 4.09  97
2025 10 05 08  05 41 21.734   +20 47 30.18  .32907 1.1373 106.3 21.9 4.22  97
2025 10 05 09  05 41 45.096   +20 46 49.92  .32873 1.1368 106.3 21.9 4.35  97
2025 10 05 10  05 42 08.495   +20 46 09.37  .32839 1.1364 106.2 21.9 4.48  97
2025 10 05 11  05 42 31.933   +20 45 28.53  .32805 1.1359 106.2 21.9 4.62  98
2025 10 05 12  05 42 55.408   +20 44 47.42  .32772 1.1355 106.1 21.8 4.75  98
2025 10 05 13  05 43 18.921   +20 44 06.01  .32738 1.1351 106.1 21.8 4.89  98
2025 10 05 14  05 43 42.472   +20 43 24.32  .32705 1.1346 106.0 21.8 5.04  98
2025 10 05 15  05 44 06.061   +20 42 42.34  .32671 1.1342 106.0 21.8 5.18  98
2025 10 05 16  05 44 29.687   +20 42 00.08  .32638 1.1338 105.9 21.8 5.33  98
2025 10 05 17  05 44 53.351   +20 41 17.52  .32605 1.1333 105.9 21.8 5.48  98
2025 10 05 18  05 45 17.053   +20 40 34.67  .32571 1.1329 105.8 21.8 5.63  98
2025 10 05 19  05 45 40.793   +20 39 51.54  .32538 1.1325 105.8 21.8 5.78  98
2025 10 05 20  05 46 04.570   +20 39 08.11  .32505 1.1320 105.7 21.8 5.94  98
2025 10 05 21  05 46 28.385   +20 38 24.38  .32472 1.1316 105.7 21.8 6.10  98
2025 10 05 22  05 46 52.237   +20 37 40.37  .32439 1.1312 105.6 21.8 6.26  98
2025 10 05 23  05 47 16.128   +20 36 56.05  .32407 1.1307 105.6 21.8 6.43  98
2025 10 06 00  05 47 40.056   +20 36 11.44  .32374 1.1303 105.5 21.8 6.60  98
2025 10 06 01  05 48 04.021   +20 35 26.54  .32341 1.1299 105.5 21.8 6.77  98
2025 10 06 02  05 48 28.024   +20 34 41.33  .32309 1.1294 105.4 21.8 6.94  98
2025 10 06 03  05 48 52.065   +20 33 55.83  .32276 1.1290 105.4 21.8 7.12  98
2025 10 06 04  05 49 16.144   +20 33 10.03  .32244 1.1286 105.3 21.8 7.30  98
2025 10 06 05  05 49 40.260   +20 32 23.92  .32212 1.1281 105.3 21.8 7.48  99
2025 10 06 06  05 50 04.413   +20 31 37.52  .32179 1.1277 105.2 21.8 7.66  99
2025 10 06 07  05 50 28.604   +20 30 50.81  .32147 1.1273 105.1 21.8 7.85  99
2025 10 06 08  05 50 52.833   +20 30 03.79  .32115 1.1268 105.1 21.8 8.04  99
2025 10 06 09  05 51 17.099   +20 29 16.48  .32083 1.1264 105.0 21.8 8.23  99
2025 10 06 10  05 51 41.403   +20 28 28.86  .32051 1.1260 105.0 21.8 8.43  99